Overview Statistics Trail Chart Weather Telemetry Raw packets
 

This is the latest recevied weather packets stored in our database for station/object KB4JHU-15. If no packets are shown the sender has not sent any weather packets the latest 10 day(s).

<< 1 2 3 4 5 6 7 >>
Time Temp. Humidity Pressure Rain* Wind** Luminosity Snow
1788483404 30.56° C 63% - 0 mm - - -
1788481603 31.67° C 56% - 0 mm - - -
1788480017 32.78° C 53% - 0 mm - - -
1788479802 32.78° C 53% - 0 mm - - -
1788478001 33.89° C 49% - 0 mm - - -
1788476200 34.44° C 45% - 0 mm - - -
1788474399 35.56° C 40% - 0 mm - - -
1788472736 35.56° C 41% - 0 mm - - -
1788472598 35.56° C 41% - 0 mm - - -
1788470797 36.67° C 37% - 0 mm - - -
1788468996 36.11° C 37% - 0 mm - - -
1788467195 36.67° C 38% - 0 mm - - -
1788465394 36.11° C 39% - 0 mm - - -
1788463594 36.67° C 40% - 0 mm - - -
1788461792 37.78° C 37% - 0 mm - - -
1788459991 36.11° C 39% - 0 mm - - -
1788458190 35.56° C 44% - 0 mm - - -
1788456406 37.22° C 36% - 0 mm - - -
1788454588 35.56° C 43% - 0 mm - - -
1788452787 33.89° C 47% - 0 mm - - -
1788450986 35° C 44% - 0 mm - - -
1788449185 35° C 48% - 0 mm - - -
1788447384 33.33° C 52% - 0 mm - - -
1788445583 31.67° C 58% - 0 mm - - -
1788443782 29.44° C 68% - 0 mm - - -

* Rain latest hour (hover to see other rain measurements)
** Current wind speed in m/s (hover to see current wind gust speed)